Date String (YYYY-MM-DD hh:mm:ss) UTC,Instrument flags,absolute air pressure of the measurement (hPa),sample flow rate (lpm),inlet stack bypass flow (lpm),air temperature of the measurement (°C),ambient temperature measured by the external sensor (°C),aerosol sample conditioner tube jacket temperature (°C),OPC LED temperature (°C),internal box temperature (°C),relative humidity of the measurement (%),span deviation,mass concentration of particles derived from Lorenz-Mie calculation of OPC scattering (μg/m³),mass concentration of particles derived from Lorenz-Mie calculation of OPC scattering (μg/m³),mass concentration of particles derived from Lorenz-Mie calculation of OPC scattering (μg/m³)
DateTimeUTC,F1_M11,P_M11,Q1_M11,Q2_M11,T1_M11,T2_M11,T3_M11,T4_M11,T5_M11,U1_M11,ZSPAN_M11,X0_M11,X2_M11,X1_M11
2023-12-06 15:00:00,SystemResetWarning,0833.6,4.99,000.00,023.6,022.7,000.0,031.9,024.9,11.9,0000.0,0000.38,0000.29,0000.25
2023-12-06 15:01:00,SystemResetWarning,0833.6,5.00,000.00,023.6,022.7,000.0,031.9,024.9,11.5,0000.0,0000.38,0000.28,0000.25
2023-12-06 15:02:00,SystemResetWarning,0833.6,5.00,000.00,023.6,022.8,000.0,031.9,024.9,11.7,0000.0,0000.38,0000.29,0000.26
2023-12-06 15:03:00,SystemResetWarning,0833.6,5.01,000.00,023.6,022.8,000.0,031.9,024.9,12.5,0000.0,0000.40,0000.30,0000.26
2023-12-06 15:04:00,SystemResetWarning,0833.5,5.00,000.00,023.6,022.8,000.0,031.9,025.0,13.1,0000.0,0000.38,0000.29,0000.26
2023-12-06 15:05:00,SystemResetWarning,0833.4,5.00,000.00,023.6,022.8,000.0,031.9,025.0,13.0,0000.0,0000.37,0000.29,0000.26
2023-12-06 15:06:00,SystemResetWarning,0833.4,4.99,000.00,023.6,022.8,000.0,031.9,025.0,12.8,0000.0,0000.37,0000.28,0000.26
2023-12-06 15:07:00,SystemResetWarning,0833.4,4.99,000.00,023.6,022.9,000.0,031.9,025.0,12.6,0000.0,0000.38,0000.29,0000.26
2023-12-06 15:08:00,SystemResetWarning,0833.4,5.00,000.00,023.7,022.9,000.0,031.9,025.0,12.6,0000.0,0000.41,0000.31,0000.26
2023-12-06 15:09:00,SystemResetWarning,0833.4,5.01,000.00,023.7,022.9,000.0,031.9,025.0,12.9,0000.0,0000.42,0000.31,0000.26
2023-12-06 15:10:00,SystemResetWarning,0833.4,4.99,000.00,023.7,022.9,000.0,031.9,025.0,13.0,0000.0,0000.42,0000.31,0000.26
2023-12-06 15:11:00,SystemResetWarning,0833.4,4.99,000.00,023.7,022.9,000.0,031.9,025.0,12.9,0000.0,0000.44,0000.31,0000.26
2023-12-06 15:12:00,SystemResetWarning,0833.4,5.01,000.00,023.7,022.9,000.0,031.9,025.0,12.4,0000.0,0001.03,0000.33,0000.27
2023-12-06 15:13:00,SystemResetWarning,0833.4,5.00,000.00,023.7,023.0,000.0,031.9,025.1,11.7,0000.0,0001.39,0000.35,0000.27
2023-12-06 15:14:00,SystemResetWarning,0833.4,5.00,000.00,023.7,023.0,000.0,032.0,025.1,11.9,0000.0,0001.40,0000.36,0000.28
2023-12-06 15:15:00,SystemResetWarning,0833.4,4.99,000.00,023.7,023.0,000.0,032.0,025.1,12.6,0000.0,0001.50,0000.40,0000.29
2023-12-06 15:16:00,SystemResetWarning,0833.5,5.00,000.00,023.8,023.0,000.0,032.0,025.1,12.8,0000.0,0001.60,0000.45,0000.31
2023-12-06 15:17:00,SystemResetWarning,0833.5,4.99,000.00,023.8,023.0,000.0,032.0,025.1,12.8,0000.0,0001.59,0000.45,0000.32
2023-12-06 15:18:00,SystemResetWarning,0833.5,4.99,000.00,023.8,023.0,000.0,032.0,025.1,11.8,0000.0,0001.63,0000.47,0000.34
2023-12-06 15:19:00,SystemResetWarning,0833.4,5.00,000.00,023.8,023.1,000.0,032.0,025.1,11.2,0000.0,0001.64,0000.47,0000.34
2023-12-06 15:20:00,SystemResetWarning,0833.4,5.00,000.00,023.8,023.1,000.0,032.0,025.2,10.9,0000.0,0001.65,0000.48,0000.35
2023-12-06 15:21:00,SystemResetWarning,0833.4,5.01,000.00,023.8,023.1,000.0,032.0,025.2,11.5,0000.0,0001.68,0000.50,0000.35
2023-12-06 15:22:00,SystemResetWarning,0833.5,5.00,000.00,023.8,023.1,000.0,032.0,025.1,11.9,0000.0,0001.83,0000.52,0000.36
2023-12-06 15:23:00,SystemResetWarning,0833.5,5.01,000.00,023.8,023.1,000.0,032.1,025.2,11.4,0000.0,0001.60,0000.53,0000.35
2023-12-06 15:24:00,SystemResetWarning,0833.4,5.01,000.00,023.8,023.1,000.0,032.1,025.2,11.6,0000.0,0000.98,0000.51,0000.34
2023-12-06 15:25:00,SystemResetWarning,0833.4,5.00,000.00,023.9,023.1,000.0,032.1,025.2,11.5,0000.0,0000.94,0000.49,0000.34
2023-12-06 15:26:00,SystemResetWarning,0833.4,4.99,000.00,023.9,023.2,000.0,032.1,025.3,11.5,0000.0,0000.89,0000.47,0000.33
2023-12-06 15:27:00,SystemResetWarning,0833.4,5.00,000.00,023.9,023.2,000.0,032.1,025.3,11.4,0000.0,0000.76,0000.41,0000.31
2023-12-06 15:28:00,SystemResetWarning,0833.4,5.00,000.00,023.9,023.2,000.0,032.1,025.3,11.7,0000.0,0000.89,0000.41,0000.30
2023-12-06 15:29:00,SystemResetWarning,0833.4,5.00,000.00,023.9,023.2,000.0,032.1,025.3,11.8,0000.0,0000.97,0000.39,0000.28
2023-12-06 15:30:00,SystemResetWarning,0833.4,5.00,000.00,024.0,023.2,000.0,032.1,025.3,11.2,0000.0,0000.91,0000.36,0000.27
2023-12-06 15:31:00,SystemResetWarning,0833.4,5.01,000.00,024.0,023.3,000.0,032.2,025.4,11.3,0000.0,0000.86,0000.34,0000.26
2023-12-06 15:32:00,SystemResetWarning,0833.5,5.00,000.00,024.0,023.3,000.0,032.2,025.4,12.2,0000.0,0002.25,0000.33,0000.25
2023-12-06 15:33:00,SystemResetWarning,0833.5,5.01,000.00,024.0,023.3,000.0,032.2,025.4,11.7,0000.0,0002.36,0000.32,0000.25
2023-12-06 15:34:00,SystemResetWarning,0833.6,5.01,000.00,024.0,023.4,000.0,032.2,025.5,11.5,0000.0,0002.26,0000.29,0000.24
2023-12-06 15:35:00,SystemResetWarning,0833.6,5.01,000.00,024.0,023.4,000.0,032.2,025.5,11.6,0000.0,0002.26,0000.29,0000.24
2023-12-06 15:36:00,SystemResetWarning,0833.5,4.99,000.00,024.1,023.4,000.0,032.2,025.5,12.0,0000.0,0002.26,0000.29,0000.23
2023-12-06 15:37:00,SystemResetWarning,0833.5,5.00,000.00,024.1,023.4,000.0,032.2,025.5,12.4,0000.0,0002.28,0000.28,0000.21
2023-12-06 15:38:00,SystemResetWarning,0833.5,5.00,000.00,024.1,023.4,000.0,032.3,025.5,12.5,0000.0,0002.27,0000.28,0000.21
2023-12-06 15:39:00,SystemResetWarning,0833.4,5.00,000.00,024.1,023.5,000.0,032.3,025.5,12.4,0000.0,0002.22,0000.28,0000.21
2023-12-06 15:40:00,SystemResetWarning,0833.4,5.00,000.00,024.2,023.5,000.0,032.3,025.6,12.3,0000.0,0002.09,0000.28,0000.21
2023-12-06 15:41:00,SystemResetWarning,0833.5,5.01,000.00,024.2,023.5,000.0,032.3,025.6,12.4,0000.0,0002.10,0000.28,0000.22
2023-12-06 15:42:00,SystemResetWarning,0833.5,5.01,000.00,024.2,023.5,000.0,032.3,025.6,13.4,0000.0,0002.10,0000.28,0000.22
2023-12-06 15:43:00,SystemResetWarning,0833.5,5.01,000.00,024.2,023.6,000.0,032.3,025.6,13.0,0000.0,0000.97,0000.27,0000.21
2023-12-06 15:44:00,SystemResetWarning,0833.6,5.00,000.00,024.2,023.6,000.0,032.4,025.6,12.7,0000.0,0000.49,0000.26,0000.21
2023-12-06 15:45:00,SystemResetWarning,0833.6,5.00,000.00,024.3,023.6,000.0,032.4,025.6,13.4,0000.0,0000.70,0000.27,0000.21
2023-12-06 15:46:00,SystemResetWarning,0833.5,5.00,000.00,024.3,023.6,000.0,032.4,025.7,13.9,0000.0,0000.76,0000.29,0000.21
2023-12-06 15:47:00,SystemResetWarning,0833.5,5.00,000.00,024.3,023.6,000.0,032.4,025.7,13.5,0000.0,0000.76,0000.29,0000.22
2023-12-06 15:48:00,SystemResetWarning,0833.5,5.00,000.00,024.3,023.7,000.0,032.4,025.7,13.6,0000.0,0000.73,0000.28,0000.22
2023-12-06 15:49:00,SystemResetWarning,0833.5,5.00,000.00,024.4,023.7,000.0,032.5,025.8,13.9,0000.0,0000.72,0000.28,0000.21
2023-12-06 15:50:00,SystemResetWarning,0833.5,5.00,000.00,024.4,023.7,000.0,032.5,025.8,14.1,0000.0,0000.64,0000.27,0000.22
2023-12-06 15:51:00,SystemResetWarning,0833.5,5.00,000.00,024.4,023.7,000.0,032.5,025.9,14.1,0000.0,0000.64,0000.27,0000.22
2023-12-06 15:52:00,SystemResetWarning,0833.4,5.00,000.00,024.4,023.7,000.0,032.5,025.9,13.6,0000.0,0000.64,0000.27,0000.22
2023-12-06 15:53:00,SystemResetWarning,0833.5,5.00,000.00,024.4,023.8,000.0,032.5,025.9,13.8,0000.0,0000.65,0000.28,0000.22
2023-12-06 15:54:00,SystemResetWarning,0833.5,5.00,000.00,024.5,023.8,000.0,032.6,025.9,13.1,0000.0,0000.73,0000.31,0000.23
2023-12-06 15:55:00,SystemResetWarning,0833.4,5.00,000.00,024.5,023.8,000.0,032.6,025.9,12.9,0000.0,0000.84,0000.37,0000.24
2023-12-06 15:56:00,SystemResetWarning,0833.4,5.00,000.00,024.5,023.9,000.0,032.6,026.0,13.1,0000.0,0000.84,0000.40,0000.25
2023-12-06 15:57:00,SystemResetWarning,0833.4,5.00,000.00,024.5,023.9,000.0,032.6,026.0,13.1,0000.0,0000.80,0000.40,0000.26
2023-12-06 15:58:00,SystemResetWarning,0833.5,5.00,000.00,024.5,023.9,000.0,032.6,026.0,12.7,0000.0,0000.82,0000.41,0000.27
2023-12-06 15:59:00,SystemResetWarning,0833.6,5.01,000.00,024.6,023.9,000.0,032.7,026.0,12.5,0000.0,0000.88,0000.43,0000.28
